Location: *
(32.8140°S, 174.6161°E)
Time: 20:30:21
(UTC+00:00)

ATLAS 2AS CENTAUR R/B - Pass Details

Date: 10 December 2019
Orbit: 927 x 1285 km, 63.7° (Epoch: 19 January)

Event Time Altitude Azimuth Distance (km) Brightness Sun altitude
Exits shadow 15:50:52 20° 309° (NW) 2,074 3.6 -14.0°
Maximum altitude 15:55:11 55° 237° (WSW) 1,124 2.7 -13.3°
Drops below altitude 10° 16:01:12 10° 159° (SSE) 2,656 5.7 -12.3°
Sets 16:03:49 0° 155° (SSE) 3,615 6.7 -11.9°
